This is the latest recevied weather packets stored in our database for station/object K5YNC. If no packets are shown the sender has not sent any weather packets the latest 10 day(s).
| Time | Temp. | Humidity | Pressure | Rain* | Wind** | Luminosity | Snow |
|---|---|---|---|---|---|---|---|
| 1777587850 | 16.67° C | 78% | 1016.3 hPa | 0 mm | - | 52 W/m² | - |
| 1777587549 | 16.67° C | 78% | 1016.3 hPa | 0 mm | - | 42 W/m² | - |
| 1777587245 | 16.67° C | 77% | 1016.2 hPa | 0 mm | - | 38 W/m² | - |
| 1777586940 | 16.67° C | 77% | 1016.2 hPa | 0 mm | - | 42 W/m² | - |
| 1777586636 | 16.67° C | 77% | 1016.2 hPa | 0 mm | - | 48 W/m² | - |
| 1777586332 | 16.67° C | 76% | 1016.2 hPa | 0 mm | - | 44 W/m² | - |
| 1777586031 | 16.67° C | 76% | 1016 hPa | 0 mm | - | 53 W/m² | - |
| 1777585731 | 16.67° C | 76% | 1015.9 hPa | 0 mm | - | 52 W/m² | - |
| 1777585430 | 16.67° C | 75% | 1016 hPa | 0 mm | - | 50 W/m² | - |
| 1777585126 | 16.67° C | 75% | 1016.2 hPa | 0 mm | - | 60 W/m² | - |
| 1777584822 | 17.22° C | 74% | 1016.1 hPa | 0 mm | - | 72 W/m² | - |
| 1777584520 | 17.22° C | 74% | 1016.2 hPa | 0 mm | - | 76 W/m² | - |
| 1777584216 | 17.22° C | 73% | 1016.6 hPa | 0 mm | - | 71 W/m² | - |
| 1777583916 | 17.22° C | 73% | 1016.4 hPa | 0 mm | - | 71 W/m² | - |
| 1777583612 | 17.22° C | 74% | 1016.3 hPa | 0 mm | - | 77 W/m² | - |
| 1777583311 | 17.22° C | 74% | 1016.6 hPa | 0 mm | - | 75 W/m² | - |
| 1777583005 | 17.22° C | 75% | 1016.4 hPa | 0 mm | - | 83 W/m² | - |
| 1777582704 | 17.22° C | 75% | 1016.7 hPa | 0 mm | - | 78 W/m² | - |
| 1777582403 | 17.22° C | 75% | 1016.4 hPa | 0 mm | - | 89 W/m² | - |
| 1777582102 | 17.22° C | 75% | 1016.4 hPa | 0 mm | - | 98 W/m² | - |
| 1777581797 | 17.22° C | 74% | 1016.4 hPa | 0 mm | - | 107 W/m² | - |
| 1777581496 | 17.22° C | 74% | 1016.2 hPa | 0 mm | - | 107 W/m² | - |
| 1777581191 | 17.78° C | 74% | 1016.1 hPa | 0 mm | - | 151 W/m² | - |
| 1777580886 | 17.78° C | 73% | 1016.1 hPa | 0 mm | - | 170 W/m² | - |
| 1777580580 | 17.78° C | 73% | 1016.2 hPa | 0 mm | - | 193 W/m² | - |
* Rain latest hour (hover to see other rain measurements)
** Current wind speed in m/s (hover to see current wind gust speed)